Fairfield, IL

4:36 AM CST on December 13, 2019 (GMT -0600)
Fairfield Municipal

Weather History for KFWC - October, 2019

Change the Weather History Date:

Monday, October 7, 2019

  Actual Average (KEVV) Record (KEVV)
Temperature  
Mean Temperature 59 °F -  
Max Temperature 72 °F 68 °F 93 °F (2007)
Min Temperature 45 °F 45 °F 29 °F (1952)
Degree Days  
Heating Degree Days 6    
Growing Degree Days 9 (Base 50)    
Moisture  
Dew Point 48 °F    
Average Humidity 73    
Maximum Humidity 100    
Minimum Humidity 28    
Precipitation  
Precipitation 0.00 in - - ()
Sea Level Pressure  
Sea Level Pressure 30.19 in    
Wind  
Wind Speed 1 mph ()    
Max Wind Speed 7 mph    
Max Gust Speed -    
Visibility 9.7 miles    
Events      
Averages and records for this station are not official NWS values.
T = Trace of Precipitation, MM = Missing Value Source: Averaged Metar Reports

Daily Weather History Graph

Daily Weather History Graph

Search for Another Location

Airport or City:

Astronomy

Oct. 07, 2019 Rise Set
Actual Time 6:54 AM CDT 6:27 PM CDT
Civil Twilight 6:28 AM CDT 6:54 PM CDT
Nautical Twilight 5:57 AM CDT 7:24 PM CDT
Astronomical Twilight 5:26 AM CDT 7:55 PM CDT
Moon 3:43 PM CDT (10/7) 12:53 AM CDT (10/7)
Length of Visible Light 12h 25m
Length of Day
11h 32m
Waxing Gibbous, 69% of the Moon is Illuminated
Oct 7
Waxing Gibbous
Oct 13
Full
Oct 21
Last Quarter
Oct 27
New
Nov 4
First Quarter

Hourly Weather History & Observations

Time (CDT) Temp. Dew Point Humidity Pressure Visibility Wind Dir Wind Speed Gust Speed Precip Events Conditions
12:15 AM 58.1 °F 58.1 °F 100% 30.16 in 10.0 mi Calm Calm - N/A   Overcast
12:35 AM 58.1 °F 58.1 °F 100% 30.16 in 10.0 mi Calm Calm - N/A   Overcast
12:55 AM 58.1 °F 58.1 °F 100% 30.17 in 7.0 mi Calm Calm - N/A   Overcast
1:15 AM 57.9 °F 57.9 °F 100% 30.18 in 7.0 mi Calm Calm - N/A   Overcast
1:35 AM 57.7 °F 57.7 °F 100% 30.18 in 10.0 mi Calm Calm - N/A   Overcast
1:55 AM 57.6 °F 57.6 °F 100% 30.18 in 10.0 mi Calm Calm - N/A   Overcast
2:15 AM 57.2 °F 57.2 °F 100% 30.17 in 10.0 mi Calm Calm - N/A   Mostly Cloudy
2:35 AM 56.3 °F 56.3 °F 100% 30.17 in 5.0 mi Calm Calm - N/A   Clear
2:55 AM 56.3 °F 56.3 °F 100% 30.18 in 5.0 mi Calm Calm - N/A   Clear
3:15 AM 56.3 °F 56.3 °F 100% 30.17 in 5.0 mi Calm Calm - N/A   Clear
3:35 AM 57.2 °F 56.5 °F 97% 30.18 in 10.0 mi Calm Calm - N/A   Clear
3:55 AM 57.2 °F 54.7 °F 91% 30.18 in 10.0 mi Calm Calm - N/A   Clear
4:15 AM 56.7 °F 54.7 °F 93% 30.18 in 10.0 mi Calm Calm - N/A   Clear
4:55 AM 56.5 °F 53.6 °F 90% 30.18 in 10.0 mi North 3.5 mph - N/A   Clear
5:15 AM 56.3 °F 52.7 °F 88% 30.17 in 10.0 mi North 3.5 mph - N/A   Clear
5:35 AM 55.6 °F 52.0 °F 88% 30.17 in 10.0 mi North 3.5 mph - N/A   Clear
5:55 AM 55.4 °F 51.6 °F 87% 30.18 in 10.0 mi Calm Calm - N/A   Clear
6:15 AM 54.7 °F 50.5 °F 86% 30.19 in 10.0 mi Calm Calm - N/A   Clear
6:55 AM 54.0 °F 49.8 °F 86% 30.19 in 10.0 mi Calm Calm - N/A   Clear
7:15 AM 53.4 °F 49.5 °F 86% 30.19 in 10.0 mi Calm Calm - N/A   Clear
7:35 AM 52.7 °F 50.0 °F 91% 30.20 in 10.0 mi Calm Calm - N/A   Clear
7:55 AM 52.7 °F 50.5 °F 92% 30.20 in 10.0 mi Calm Calm - N/A   Clear
8:15 AM 53.6 °F 50.0 °F 88% 30.21 in 10.0 mi Calm Calm - N/A   Clear
8:35 AM 54.5 °F 50.0 °F 85% 30.22 in 10.0 mi Calm Calm - N/A   Clear
8:55 AM 55.0 °F 50.2 °F 84% 30.22 in 10.0 mi Calm Calm - N/A   Clear
9:15 AM 56.8 °F 50.7 °F 80% 30.22 in 10.0 mi North 3.5 mph - N/A   Clear
9:35 AM 58.8 °F 49.6 °F 72% 30.23 in 10.0 mi North 4.6 mph - N/A   Clear
9:55 AM 60.3 °F 49.1 °F 67% 30.24 in 10.0 mi North 4.6 mph - N/A   Clear
10:15 AM 61.9 °F 49.5 °F 64% 30.25 in 10.0 mi North 4.6 mph - N/A   Clear
10:35 AM 64.0 °F 49.1 °F 58% 30.24 in 10.0 mi North 3.5 mph - N/A   Clear
10:55 AM 66.0 °F 48.0 °F 52% 30.24 in 10.0 mi NNE 5.8 mph - N/A   Clear
11:15 AM 66.7 °F 46.6 °F 48% 30.24 in 10.0 mi NNE 6.9 mph - N/A   Clear
11:35 AM 68.7 °F 46.0 °F 44% 30.23 in 10.0 mi NNE 5.8 mph - N/A   Clear
11:55 AM 68.4 °F 45.0 °F 43% 30.23 in 10.0 mi NE 4.6 mph - N/A   Clear
12:15 PM 69.4 °F 44.1 °F 40% 30.23 in 10.0 mi NNE 3.5 mph - N/A   Clear
12:35 PM 69.8 °F 43.2 °F 38% 30.22 in 10.0 mi Calm Calm - N/A   Clear
12:55 PM 70.2 °F 41.5 °F 35% 30.22 in 10.0 mi Calm Calm - N/A   Clear
1:15 PM 70.9 °F 42.3 °F 36% 30.21 in 10.0 mi NNE 3.5 mph - N/A   Clear
1:35 PM 70.2 °F 40.5 °F 34% 30.20 in 10.0 mi Calm Calm - N/A   Clear
1:55 PM 71.2 °F 39.7 °F 32% 30.19 in 10.0 mi Calm Calm - N/A   Clear
2:15 PM 72.1 °F 38.7 °F 30% 30.19 in 10.0 mi Calm Calm - N/A   Clear
2:35 PM 71.2 °F 38.1 °F 30% 30.19 in 10.0 mi North 3.5 mph - N/A   Clear
2:55 PM 72.1 °F 38.8 °F 30% 30.18 in 10.0 mi NNE 3.5 mph - N/A   Clear
3:15 PM 72.3 °F 38.1 °F 29% 30.18 in 10.0 mi North 3.5 mph - N/A   Clear
3:35 PM 72.1 °F 37.9 °F 29% 30.17 in 10.0 mi NNE 5.8 mph - N/A   Clear
3:55 PM 72.5 °F 37.9 °F 28% 30.17 in 10.0 mi North 3.5 mph - N/A   Clear
4:15 PM 71.8 °F 38.8 °F 30% 30.17 in 10.0 mi NNW 3.5 mph - N/A   Clear
4:35 PM 71.8 °F 39.2 °F 31% 30.17 in 7.0 mi Calm Calm - N/A   Clear
4:55 PM 71.2 °F 39.4 °F 31% 30.17 in 10.0 mi Calm Calm - N/A   Clear
5:15 PM 71.2 °F 39.9 °F 32% 30.16 in 10.0 mi Calm Calm - N/A   Clear
5:35 PM 69.8 °F 40.8 °F 35% 30.16 in 10.0 mi Calm Calm - N/A   Clear
5:55 PM 65.1 °F 44.6 °F 47% 30.16 in 10.0 mi Calm Calm - N/A   Clear
6:15 PM 61.7 °F 48.0 °F 61% 30.17 in 10.0 mi Calm Calm - N/A   Clear
6:35 PM 58.5 °F 50.2 °F 74% 30.17 in 10.0 mi Calm Calm - N/A   Clear
6:55 PM 55.0 °F 49.8 °F 83% 30.17 in 10.0 mi Calm Calm - N/A   Clear
7:15 PM 55.6 °F 49.8 °F 81% 30.17 in 10.0 mi Calm Calm - N/A   Clear
7:35 PM 54.0 °F 48.9 °F 83% 30.18 in 10.0 mi Calm Calm - N/A   Clear
7:55 PM 53.6 °F 49.8 °F 87% 30.18 in 10.0 mi Calm Calm - N/A   Clear
8:15 PM 51.3 °F 48.4 °F 90% 30.19 in 10.0 mi Calm Calm - N/A   Clear
8:35 PM 50.9 °F 49.1 °F 94% 30.19 in 10.0 mi Calm Calm - N/A   Clear
8:55 PM 51.6 °F 47.5 °F 86% 30.20 in 10.0 mi Calm Calm - N/A   Clear
9:15 PM 50.2 °F 49.8 °F 99% 30.20 in 10.0 mi Calm Calm - N/A   Clear
9:35 PM 48.7 °F 48.7 °F 100% 30.20 in 10.0 mi Calm Calm - N/A   Clear
9:55 PM 49.1 °F 48.4 °F 97% 30.21 in 10.0 mi Calm Calm - N/A   Clear
10:15 PM 48.7 °F 48.6 °F 99% 30.21 in 10.0 mi Calm Calm - N/A   Clear
10:35 PM 47.8 °F 47.8 °F 100% 30.21 in 10.0 mi Calm Calm - N/A   Clear
10:55 PM 47.3 °F 47.3 °F 100% 30.21 in 10.0 mi Calm Calm - N/A   Clear
11:15 PM 46.6 °F 46.6 °F 100% 30.21 in 10.0 mi Calm Calm - N/A   Clear
11:35 PM 46.4 °F 46.4 °F 100% 30.20 in 10.0 mi Calm Calm - N/A   Clear
11:55 PM 45.7 °F 45.7 °F 100% 30.20 in 10.0 mi Calm Calm - N/A   Clear